TimeEDT,TemperatureF,Dew PointF,Humidity,Sea Level PressureIn,VisibilityMPH,Wind Direction,Wind SpeedMPH,Gust SpeedMPH,PrecipitationIn,Events,Conditions,WindDirDegrees,DateUTC
12:15 AM,53.6,53.6,100,29.98,0.2,Calm,Calm,-,N/A,Fog,Fog,0,2013-05-09 04:15:00
12:55 AM,53.6,53.6,100,29.97,0.2,SW,3.5,-,N/A,Fog,Fog,230,2013-05-09 04:55:00
2:15 AM,53.6,51.8,94,29.96,0.2,Calm,Calm,-,N/A,Fog,Fog,0,2013-05-09 06:15:00
3:35 AM,53.6,51.8,94,29.95,0.2,Calm,Calm,-,N/A,Fog,Fog,0,2013-05-09 07:35:00
4:15 AM,51.8,51.8,100,29.95,0.2,SSW,3.5,-,N/A,Fog,Fog,200,2013-05-09 08:15:00
4:35 AM,51.8,51.8,100,29.95,0.2,Calm,Calm,-,N/A,Fog,Fog,0,2013-05-09 08:35:00
4:55 AM,51.8,50.0,94,29.95,0.2,Calm,Calm,-,N/A,Fog,Fog,0,2013-05-09 08:55:00
5:15 AM,51.8,50.0,94,29.95,0.2,Calm,Calm,-,N/A,Fog,Fog,0,2013-05-09 09:15:00
6:15 AM,50.0,48.2,94,29.96,0.2,Calm,Calm,-,N/A,Fog,Fog,0,2013-05-09 10:15:00
7:15 AM,51.8,48.2,88,29.99,0.2,Calm,Calm,-,N/A,Fog,Fog,0,2013-05-09 11:15:00
7:35 AM,51.8,51.8,100,29.99,10.0,SW,5.8,-,N/A,,Scattered Clouds,220,2013-05-09 11:35:00
7:55 AM,53.6,51.8,94,30.00,10.0,SW,4.6,-,N/A,,Clear,220,2013-05-09 11:55:00
8:55 AM,60.8,57.2,88,30.01,10.0,WSW,5.8,-,N/A,,Clear,240,2013-05-09 12:55:00
9:15 AM,64.4,59.0,83,30.00,10.0,SW,6.9,-,N/A,,Mostly Cloudy,220,2013-05-09 13:15:00
10:15 AM,62.6,59.0,88,30.01,10.0,SW,3.5,-,N/A,,Overcast,230,2013-05-09 14:15:00
10:35 AM,64.4,59.0,83,30.01,10.0,WSW,3.5,-,N/A,,Overcast,240,2013-05-09 14:35:00
10:55 AM,64.4,59.0,83,30.01,10.0,SSW,6.9,-,N/A,,Overcast,210,2013-05-09 14:55:00
11:35 AM,68.0,60.8,78,30.01,10.0,WSW,3.5,-,N/A,,Mostly Cloudy,250,2013-05-09 15:35:00
11:55 AM,69.8,59.0,68,30.01,10.0,SW,3.5,-,N/A,,Overcast,230,2013-05-09 15:55:00
12:15 PM,69.8,57.2,64,30.01,10.0,WSW,5.8,-,N/A,,Mostly Cloudy,250,2013-05-09 16:15:00
12:35 PM,73.4,55.4,53,30.01,10.0,WSW,4.6,-,N/A,,Scattered Clouds,250,2013-05-09 16:35:00
1:15 PM,75.2,51.8,44,30.01,10.0,WNW,6.9,-,N/A,,Clear,290,2013-05-09 17:15:00
1:35 PM,75.2,51.8,44,30.00,10.0,West,3.5,-,N/A,,Scattered Clouds,270,2013-05-09 17:35:00
1:55 PM,77.0,53.6,44,30.00,10.0,WSW,9.2,-,N/A,,Scattered Clouds,240,2013-05-09 17:55:00
2:15 PM,77.0,51.8,41,29.99,10.0,WSW,5.8,-,N/A,,Scattered Clouds,250,2013-05-09 18:15:00
2:35 PM,77.0,50.0,39,29.99,10.0,Calm,Calm,-,N/A,,Mostly Cloudy,0,2013-05-09 18:35:00
2:55 PM,77.0,48.2,36,29.99,10.0,WNW,5.8,-,N/A,,Overcast,290,2013-05-09 18:55:00
3:35 PM,78.8,50.0,36,29.98,10.0,Calm,Calm,-,N/A,,Scattered Clouds,0,2013-05-09 19:35:00
4:15 PM,80.6,48.2,32,29.97,10.0,WSW,4.6,-,N/A,,Scattered Clouds,250,2013-05-09 20:15:00
4:35 PM,80.6,46.4,30,29.96,10.0,WNW,3.5,-,N/A,,Scattered Clouds,290,2013-05-09 20:35:00
4:55 PM,78.8,48.2,34,29.96,10.0,Calm,Calm,-,N/A,,Mostly Cloudy,0,2013-05-09 20:55:00
5:15 PM,80.6,48.2,32,29.96,10.0,NE,3.5,-,N/A,,Mostly Cloudy,40,2013-05-09 21:15:00
5:35 PM,80.6,46.4,30,29.96,10.0,SSW,3.5,-,N/A,,Mostly Cloudy,210,2013-05-09 21:35:00
5:55 PM,80.6,46.4,30,29.96,10.0,WSW,3.5,-,N/A,,Scattered Clouds,240,2013-05-09 21:55:00
6:15 PM,80.6,46.4,30,29.96,10.0,SW,4.6,-,N/A,,Clear,220,2013-05-09 22:15:00
6:35 PM,78.8,46.4,32,29.96,10.0,SSW,4.6,-,N/A,,Clear,200,2013-05-09 22:35:00
6:55 PM,78.8,51.8,39,29.96,10.0,SSW,3.5,-,N/A,,Clear,200,2013-05-09 22:55:00
7:15 PM,77.0,50.0,39,29.97,10.0,SSW,3.5,-,N/A,,Clear,210,2013-05-09 23:15:00
7:35 PM,75.2,50.0,41,29.97,10.0,Calm,Calm,-,N/A,,Clear,0,2013-05-09 23:35:00
7:55 PM,73.4,51.8,47,29.98,10.0,Calm,Calm,-,N/A,,Clear,0,2013-05-09 23:55:00
8:15 PM,71.6,51.8,50,29.98,10.0,Calm,Calm,-,N/A,,Clear,0,2013-05-10 00:15:00
8:35 PM,71.6,51.8,50,29.99,10.0,Calm,Calm,-,N/A,,Clear,0,2013-05-10 00:35:00
8:55 PM,69.8,51.8,53,30.00,10.0,Calm,Calm,-,N/A,,Clear,0,2013-05-10 00:55:00
9:15 PM,66.2,53.6,64,30.00,10.0,Calm,Calm,-,N/A,,Scattered Clouds,0,2013-05-10 01:15:00
9:35 PM,68.0,53.6,60,30.01,10.0,Calm,Calm,-,N/A,,Clear,0,2013-05-10 01:35:00
9:55 PM,64.4,53.6,68,30.02,10.0,Calm,Calm,-,N/A,,Scattered Clouds,0,2013-05-10 01:55:00
10:15 PM,64.4,55.4,73,30.02,10.0,Calm,Calm,-,N/A,,Mostly Cloudy,0,2013-05-10 02:15:00
10:35 PM,64.4,57.2,77,30.01,10.0,Calm,Calm,-,N/A,,Scattered Clouds,0,2013-05-10 02:35:00
10:55 PM,64.4,55.4,73,30.01,10.0,Calm,Calm,-,N/A,,Mostly Cloudy,0,2013-05-10 02:55:00
11:15 PM,64.4,55.4,73,30.01,10.0,Calm,Calm,-,N/A,,Overcast,0,2013-05-10 03:15:00
11:55 PM,66.2,55.4,68,30.02,10.0,Calm,Calm,-,N/A,,Mostly Cloudy,0,2013-05-10 03:55:00